Location: Newark
(45.8378°N, 5.5389°E)
Time: 01:56:48
(UTC+00:00)

DELFI C3 - Visible Passes

Search period start: 28 February 2021 00:00
Search period end: 10 March 2021 00:00
Orbit: 532 x 549 km, 97.4° (Epoch: 27 February)

Date Brightness Start Highest point End Pass type
(mag) Time Alt. Az. Time Alt. Az. Time Alt. Az.
28 Feb ? 18:55:13 14° SSE 18:58:33 68° ENE 19:02:26 10° N visible
28 Feb ? 20:32:46 10° W 20:33:33 10° W 20:34:21 10° WNW visible
01 Mar ? 18:47:46 11° SSE 18:51:22 56° ENE 18:55:13 10° N visible
01 Mar ? 20:24:31 10° WSW 20:26:17 13° W 20:28:03 10° WNW visible
02 Mar ? 18:40:28 10° SE 18:44:13 46° ENE 18:47:58 10° N visible
02 Mar ? 20:16:43 10° SW 20:19:01 15° W 20:21:21 10° NW visible
03 Mar ? 18:33:24 10° SE 18:37:03 38° ENE 18:40:42 10° N visible
03 Mar ? 20:09:03 10° SW 20:11:46 18° W 20:14:29 10° NW visible
04 Mar ? 18:26:23 10° SE 18:29:53 32° ENE 18:33:24 10° N visible
04 Mar ? 20:01:30 10° SW 20:04:31 21° W 20:07:32 10° NW visible
05 Mar ? 18:19:23 10° SE 18:22:43 27° ENE 18:26:04 10° N visible
05 Mar ? 19:54:00 10° SSW 19:57:15 25° W 20:00:32 10° NW visible
06 Mar ? 18:12:27 10° ESE 18:15:34 23° ENE 18:18:41 10° NNE visible
06 Mar ? 19:46:33 10° SSW 19:50:00 30° W 19:53:28 10° NNW visible
07 Mar ? 18:05:32 10° ESE 18:08:25 20° ENE 18:11:17 10° NNE visible
07 Mar ? 19:39:09 10° SSW 19:42:45 36° W 19:46:22 10° NNW visible
08 Mar ? 17:58:42 10° ESE 18:01:15 17° ENE 18:03:49 10° NNE visible
08 Mar ? 19:31:47 10° S 19:35:30 43° W 19:39:15 10° NNW visible
09 Mar ? 19:24:28 10° S 19:28:15 52° W 19:32:05 10° NNW visible
